timestamp,wind_dir_avg,wind_spd_max_dir,wind_spd_avg,wind_spd_gust,battery_voltage,lat,long
2018-11-28 00:00:00+00:00,61.0,62.0,8.85,10.03,,47.59359,-54.27349
2018-11-28 00:10:00+00:00,54.0,54.0,9.5,10.17,,47.59359,-54.27349
2018-11-28 00:20:00+00:00,57.0,60.0,8.9,9.85,,47.59359,-54.27349
2018-11-28 00:30:00+00:00,54.0,53.0,8.27,9.16,,47.59359,-54.27349
2018-11-28 00:40:00+00:00,59.0,55.0,8.15,9.57,,47.59359,-54.27349
2018-11-28 00:50:00+00:00,58.0,56.0,9.72,10.61,,47.59359,-54.27349
2018-11-28 01:00:00+00:00,55.0,58.0,10.19,11.2,,47.59359,-54.27349
2018-11-28 01:10:00+00:00,63.0,58.0,10.21,11.42,,47.59359,-54.27349
2018-11-28 01:20:00+00:00,65.0,70.0,9.06,10.83,,47.59359,-54.27349
2018-11-28 01:30:00+00:00,70.0,66.0,9.38,10.23,,47.59359,-54.27349
2018-11-28 01:40:00+00:00,71.0,73.0,11.14,12.73,,47.59359,-54.27349
2018-11-28 01:50:00+00:00,70.0,76.0,10.12,11.99,,47.59359,-54.27349
2018-11-28 02:00:00+00:00,66.0,72.0,8.67,9.42,,47.59359,-54.27349
2018-11-28 02:10:00+00:00,61.0,61.0,9.17,10.08,,47.59359,-54.27349
2018-11-28 02:20:00+00:00,56.0,58.0,9.09,10.15,,47.59359,-54.27349
2018-11-28 02:30:00+00:00,62.0,65.0,8.59,9.66,,47.59359,-54.27349
2018-11-28 02:40:00+00:00,60.0,58.0,8.73,10.24,,47.59359,-54.27349
2018-11-28 02:50:00+00:00,65.0,66.0,8.91,10.26,,47.59359,-54.27349
2018-11-28 03:00:00+00:00,69.0,70.0,8.78,9.51,,47.59359,-54.27349
2018-11-28 03:10:00+00:00,72.0,69.0,8.81,9.96,,47.59359,-54.27349
2018-11-28 03:20:00+00:00,68.0,70.0,7.78,9.05,,47.59359,-54.27349
2018-11-28 03:30:00+00:00,72.0,74.0,8.77,10.17,,47.59359,-54.27349
2018-11-28 03:40:00+00:00,72.0,67.0,8.26,9.0,,47.59359,-54.27349
2018-11-28 03:50:00+00:00,64.0,62.0,8.63,9.93,,47.59359,-54.27349
2018-11-28 04:00:00+00:00,66.0,64.0,7.94,9.0,,47.59359,-54.27349
2018-11-28 04:10:00+00:00,72.0,68.0,7.95,9.26,,47.59359,-54.27349
2018-11-28 04:20:00+00:00,72.0,70.0,7.47,9.11,,47.59359,-54.27349
2018-11-28 04:30:00+00:00,79.0,77.0,6.99,8.02,,47.59359,-54.27349
2018-11-28 04:40:00+00:00,67.0,77.0,6.94,8.07,,47.59359,-54.27349
2018-11-28 04:50:00+00:00,72.0,72.0,6.87,8.04,,47.59359,-54.27349
2018-11-28 05:00:00+00:00,74.0,69.0,6.96,8.77,,47.59359,-54.27349
2018-11-28 05:10:00+00:00,70.0,68.0,7.06,8.3,,47.59359,-54.27349
2018-11-28 05:20:00+00:00,79.0,85.0,8.17,9.04,,47.59359,-54.27349
2018-11-28 05:30:00+00:00,78.0,81.0,10.46,12.44,,47.59359,-54.27349
2018-11-28 05:40:00+00:00,82.0,82.0,8.8,9.86,,47.59359,-54.27349
2018-11-28 05:50:00+00:00,82.0,80.0,7.92,9.92,,47.59359,-54.27349
2018-11-28 06:00:00+00:00,95.0,109.0,5.95,8.31,,47.59359,-54.27349
2018-11-28 06:10:00+00:00,88.0,82.0,4.95,7.07,,47.59359,-54.27349
2018-11-28 06:20:00+00:00,93.0,88.0,5.35,7.21,,47.59359,-54.27349
2018-11-28 06:30:00+00:00,85.0,82.0,5.42,7.62,,47.59359,-54.27349
2018-11-28 06:40:00+00:00,75.0,73.0,7.04,8.89,,47.59359,-54.27349
2018-11-28 06:50:00+00:00,83.0,83.0,10.12,13.85,,47.59359,-54.27349
2018-11-28 07:00:00+00:00,86.0,82.0,10.26,15.33,,47.59359,-54.27349
2018-11-28 07:10:00+00:00,84.0,83.0,10.13,13.63,,47.59359,-54.27349
2018-11-28 07:20:00+00:00,88.0,78.0,8.2,13.43,,47.59359,-54.27349
2018-11-28 07:30:00+00:00,90.0,83.0,5.91,11.83,,47.59359,-54.27349
2018-11-28 07:40:00+00:00,87.0,79.0,7.85,12.94,,47.59359,-54.27349
2018-11-28 07:50:00+00:00,95.0,98.0,5.22,11.6,,47.59359,-54.27349
2018-11-28 08:00:00+00:00,88.0,86.0,7.54,12.06,,47.59359,-54.27349
2018-11-28 08:10:00+00:00,87.0,86.0,8.75,13.65,,47.59359,-54.27349
2018-11-28 08:20:00+00:00,89.0,89.0,6.4,12.03,,47.59359,-54.27349
2018-11-28 08:30:00+00:00,89.0,92.0,7.43,11.82,,47.59359,-54.27349
2018-11-28 08:40:00+00:00,96.0,88.0,5.63,10.06,,47.59359,-54.27349
2018-11-28 08:50:00+00:00,84.0,84.0,7.51,12.59,,47.59359,-54.27349
2018-11-28 09:00:00+00:00,88.0,82.0,8.67,13.31,,47.59359,-54.27349
2018-11-28 09:10:00+00:00,86.0,85.0,9.01,12.1,,47.59359,-54.27349
2018-11-28 09:20:00+00:00,87.0,82.0,7.45,11.91,,47.59359,-54.27349
2018-11-28 09:30:00+00:00,86.0,83.0,8.44,12.97,,47.59359,-54.27349
2018-11-28 09:40:00+00:00,87.0,80.0,5.74,9.58,,47.59359,-54.27349
2018-11-28 09:50:00+00:00,87.0,81.0,5.9,10.19,,47.59359,-54.27349
2018-11-28 10:00:00+00:00,85.0,86.0,11.3,13.6,,47.59359,-54.27349
2018-11-28 10:10:00+00:00,85.0,78.0,9.23,13.59,,47.59359,-54.27349
2018-11-28 10:20:00+00:00,87.0,82.0,6.94,10.91,,47.59359,-54.27349
2018-11-28 10:30:00+00:00,89.0,85.0,7.02,12.57,,47.59359,-54.27349
2018-11-28 10:40:00+00:00,89.0,75.0,6.11,10.52,,47.59359,-54.27349
2018-11-28 10:50:00+00:00,87.0,82.0,6.99,11.94,,47.59359,-54.27349
2018-11-28 11:00:00+00:00,96.0,95.0,5.03,7.07,,47.59359,-54.27349
2018-11-28 11:10:00+00:00,89.0,77.0,5.3,7.42,,47.59359,-54.27349
2018-11-28 11:20:00+00:00,86.0,86.0,6.27,8.12,,47.59359,-54.27349
2018-11-28 11:30:00+00:00,91.0,102.0,6.36,9.38,,47.59359,-54.27349
2018-11-28 11:40:00+00:00,81.0,74.0,7.81,10.53,,47.59359,-54.27349
2018-11-28 11:50:00+00:00,87.0,105.0,6.75,7.99,,47.59359,-54.27349
2018-11-28 12:00:00+00:00,87.0,76.0,6.35,10.11,,47.59359,-54.27349
2018-11-28 12:10:00+00:00,104.0,110.0,4.79,7.79,,47.59359,-54.27349
2018-11-28 12:20:00+00:00,103.0,124.0,5.77,9.24,,47.59359,-54.27349
2018-11-28 12:30:00+00:00,96.0,118.0,5.17,7.83,,47.59359,-54.27349
2018-11-28 12:40:00+00:00,109.0,106.0,6.25,8.59,,47.59359,-54.27349
2018-11-28 12:50:00+00:00,118.0,134.0,7.35,10.25,,47.59359,-54.27349
2018-11-28 13:00:00+00:00,104.0,95.0,5.15,8.57,,47.59359,-54.27349
2018-11-28 13:10:00+00:00,105.0,83.0,5.27,8.33,,47.59359,-54.27349
2018-11-28 13:20:00+00:00,86.0,80.0,7.11,10.08,,47.59359,-54.27349
2018-11-28 13:30:00+00:00,88.0,88.0,6.38,8.26,,47.59359,-54.27349
2018-11-28 13:40:00+00:00,97.0,105.0,5.95,8.66,,47.59359,-54.27349
2018-11-28 13:50:00+00:00,88.0,91.0,5.32,7.53,,47.59359,-54.27349
2018-11-28 14:00:00+00:00,94.0,99.0,6.77,9.09,,47.59359,-54.27349
2018-11-28 14:10:00+00:00,86.0,101.0,6.76,9.3,,47.59359,-54.27349
2018-11-28 14:20:00+00:00,91.0,78.0,6.27,8.96,,47.59359,-54.27349
2018-11-28 14:30:00+00:00,91.0,78.0,6.21,8.92,,47.59359,-54.27349
2018-11-28 14:40:00+00:00,90.0,96.0,6.58,9.79,,47.59359,-54.27349
2018-11-28 14:50:00+00:00,100.0,99.0,5.9,9.68,,47.59359,-54.27349
2018-11-28 15:00:00+00:00,93.0,89.0,6.74,9.46,,47.59359,-54.27349
2018-11-28 15:10:00+00:00,96.0,106.0,6.86,10.14,,47.59359,-54.27349
2018-11-28 15:20:00+00:00,108.0,126.0,5.04,7.02,,47.59359,-54.27349
2018-11-28 15:30:00+00:00,101.0,101.0,5.01,8.37,,47.59359,-54.27349
2018-11-28 15:40:00+00:00,104.0,115.0,5.42,8.42,,47.59359,-54.27349
2018-11-28 15:50:00+00:00,107.0,121.0,5.97,9.18,,47.59359,-54.27349
2018-11-28 16:00:00+00:00,103.0,116.0,4.51,8.41,,47.59359,-54.27349
2018-11-28 16:10:00+00:00,94.0,100.0,5.7,9.72,,47.59359,-54.27349
2018-11-28 16:20:00+00:00,89.0,85.0,6.75,9.95,,47.59359,-54.27349
2018-11-28 16:30:00+00:00,97.0,102.0,5.47,8.69,,47.59359,-54.27349
2018-11-28 16:40:00+00:00,108.0,133.0,6.19,10.1,,47.59359,-54.27349
2018-11-28 16:50:00+00:00,97.0,82.0,6.33,10.74,,47.59359,-54.27349
2018-11-28 17:00:00+00:00,98.0,80.0,6.23,9.82,,47.59359,-54.27349
2018-11-28 17:10:00+00:00,97.0,79.0,6.51,11.34,,47.59359,-54.27349
2018-11-28 17:20:00+00:00,91.0,77.0,7.93,13.23,,47.59359,-54.27349
2018-11-28 17:30:00+00:00,103.0,94.0,6.25,12.2,,47.59359,-54.27349
2018-11-28 17:40:00+00:00,108.0,81.0,5.34,9.84,,47.59359,-54.27349
2018-11-28 17:50:00+00:00,95.0,80.0,7.95,12.27,,47.59359,-54.27349
2018-11-28 18:00:00+00:00,100.0,80.0,6.53,13.27,,47.59359,-54.27349
2018-11-28 18:10:00+00:00,106.0,114.0,6.78,10.65,,47.59359,-54.27349
2018-11-28 18:20:00+00:00,104.0,81.0,6.62,10.15,,47.59359,-54.27349
2018-11-28 18:30:00+00:00,106.0,133.0,7.52,10.07,,47.59359,-54.27349
2018-11-28 18:40:00+00:00,101.0,87.0,6.2,10.38,,47.59359,-54.27349
2018-11-28 18:50:00+00:00,97.0,104.0,7.38,10.15,,47.59359,-54.27349
2018-11-28 19:00:00+00:00,103.0,124.0,5.67,8.96,,47.59359,-54.27349
2018-11-28 19:10:00+00:00,90.0,86.0,7.36,9.81,,47.59359,-54.27349
2018-11-28 19:20:00+00:00,98.0,83.0,6.67,9.8,,47.59359,-54.27349
2018-11-28 19:30:00+00:00,95.0,83.0,7.1,11.99,,47.59359,-54.27349
2018-11-28 19:40:00+00:00,97.0,77.0,6.02,10.89,,47.59359,-54.27349
2018-11-28 19:50:00+00:00,97.0,82.0,8.14,13.3,,47.59359,-54.27349
2018-11-28 20:00:00+00:00,91.0,95.0,9.05,12.87,,47.59359,-54.27349
2018-11-28 20:10:00+00:00,93.0,79.0,8.06,12.91,,47.59359,-54.27349
2018-11-28 20:20:00+00:00,91.0,81.0,10.46,17.41,,47.59359,-54.27349
2018-11-28 20:30:00+00:00,96.0,95.0,10.5,16.7,,47.59359,-54.27349
2018-11-28 20:40:00+00:00,91.0,90.0,11.05,18.22,,47.59359,-54.27349
2018-11-28 20:50:00+00:00,90.0,84.0,11.56,17.28,,47.59359,-54.27349
2018-11-28 21:00:00+00:00,92.0,85.0,11.94,16.81,,47.59359,-54.27349
2018-11-28 21:10:00+00:00,88.0,80.0,12.99,16.88,,47.59359,-54.27349
2018-11-28 21:20:00+00:00,91.0,92.0,14.1,17.87,,47.59359,-54.27349
2018-11-28 21:30:00+00:00,90.0,86.0,13.87,17.41,,47.59359,-54.27349
2018-11-28 21:40:00+00:00,91.0,88.0,13.89,18.26,,47.59359,-54.27349
2018-11-28 21:50:00+00:00,88.0,76.0,10.67,16.07,,47.59359,-54.27349
2018-11-28 22:00:00+00:00,88.0,88.0,10.58,12.94,,47.59359,-54.27349
2018-11-28 22:10:00+00:00,88.0,86.0,10.68,12.83,,47.59359,-54.27349
2018-11-28 22:20:00+00:00,85.0,86.0,13.4,17.22,,47.59359,-54.27349
2018-11-28 22:30:00+00:00,82.0,79.0,14.05,16.9,,47.59359,-54.27349
2018-11-28 22:40:00+00:00,85.0,84.0,11.38,13.61,,47.59359,-54.27349
2018-11-28 22:50:00+00:00,80.0,82.0,14.95,17.95,,47.59359,-54.27349
2018-11-28 23:00:00+00:00,85.0,85.0,15.8,19.14,,47.59359,-54.27349
2018-11-28 23:10:00+00:00,86.0,82.0,12.43,15.27,,47.59359,-54.27349
2018-11-28 23:20:00+00:00,84.0,78.0,12.92,15.45,,47.59359,-54.27349
2018-11-28 23:30:00+00:00,85.0,84.0,14.5,17.5,,47.59359,-54.27349
2018-11-28 23:40:00+00:00,83.0,84.0,13.83,16.9,,47.59359,-54.27349
2018-11-28 23:50:00+00:00,83.0,83.0,14.77,16.7,,47.59359,-54.27349
